SDM601 UWKD-UWGG

Flight info

Callsign SDM601
Flight time N/A
Altitude 30000
Route APTAR1G APTAR L158 KOKAD N604 PESAB PESAB2Z
Aircraft A320/M-SDE3FGHIRWY/LB1

Departure

Time 2026-05-04 18:04
Airport Kazan International Airport (UWKD)

Arrival

Time N/A
Airport Nizhny Novgorod / Strigino International Airport (UWGG)
Time Latitude Longitude Altitude Speed Heading
2026-05-04 17:55 55.60809 49.29691 416 ft 2 kts 34°
2026-05-04 17:56 55.60795 49.29676 405 ft 2 kts 29°
2026-05-04 17:56 55.60781 49.29662 408 ft 2 kts 22°
2026-05-04 17:56 55.60765 49.29653 408 ft 2 kts
2026-05-04 17:56 55.60749 49.29654 412 ft 2 kts 326°
2026-05-04 17:57 55.60739 49.29669 413 ft 1 kts 303°
2026-05-04 17:57 55.60738 49.29671 413 ft 0 kts 302°
2026-05-04 17:58 55.60739 49.29668 413 ft 3 kts 303°
2026-05-04 17:58 55.60798 49.29518 410 ft 18 kts 304°
2026-05-04 17:58 55.60767 49.29370 414 ft 15 kts 214°
2026-05-04 17:58 55.60716 49.29309 416 ft 0 kts 214°
2026-05-04 17:59 55.60714 49.29307 416 ft 3 kts 214°
2026-05-04 18:00 55.60614 49.29176 416 ft 24 kts 221°
2026-05-04 18:00 55.60580 49.28896 416 ft 24 kts 275°
2026-05-04 18:00 55.60603 49.28592 409 ft 25 kts 287°
2026-05-04 18:00 55.60702 49.28326 414 ft 26 kts 305°
2026-05-04 18:01 55.60811 49.28050 414 ft 30 kts 304°
2026-05-04 18:01 55.60934 49.27731 416 ft 32 kts 304°
2026-05-04 18:01 55.61059 49.27405 413 ft 32 kts 304°
2026-05-04 18:02 55.61314 49.26751 413 ft 33 kts 304°
2026-05-04 18:02 55.61443 49.26418 409 ft 33 kts 305°
2026-05-04 18:02 55.61575 49.26084 412 ft 33 kts 304°
2026-05-04 18:02 55.61705 49.25744 411 ft 33 kts 303°
2026-05-04 18:03 55.61833 49.25414 412 ft 24 kts 306°
2026-05-04 18:03 55.61772 49.25194 409 ft 26 kts 212°
2026-05-04 18:03 55.61680 49.25166 410 ft 0 kts 123°
2026-05-04 18:03 55.61662 49.25208 408 ft 24 kts 128°
2026-05-04 18:04 55.61409 49.25840 413 ft 98 kts 124°
2026-05-04 18:04 55.60914 49.27126 411 ft 153 kts 125°
2026-05-04 18:04 55.59651 49.30451 1444 ft 169 kts 126°
2026-05-04 18:05 55.58981 49.32234 1979 ft 179 kts 128°
2026-05-04 18:05 55.58228 49.34151 2369 ft 201 kts 128°
2026-05-04 18:05 55.57374 49.36293 2686 ft 225 kts 127°
2026-05-04 18:05 55.56437 49.38659 3189 ft 241 kts 127°
2026-05-04 18:06 55.54618 49.42476 4390 ft 255 kts 152°
2026-05-04 18:06 55.52867 49.43207 4853 ft 268 kts 189°
2026-05-04 18:06 55.51170 49.41947 5576 ft 269 kts 224°
2026-05-04 18:07 55.49880 49.38259 6639 ft 272 kts 247°
2026-05-04 18:07 55.49185 49.36341 7182 ft 279 kts 229°
2026-05-04 18:07 55.47622 49.34208 7735 ft 288 kts 212°
2026-05-04 18:07 55.45827 49.32700 7874 ft 289 kts 204°
2026-05-04 18:08 55.43940 49.31457 7898 ft 289 kts 203°
2026-05-04 18:08 55.42205 49.29750 7898 ft 284 kts 224°
2026-05-04 18:08 55.41027 49.27029 7905 ft 278 kts 249°
2026-05-04 18:08 55.40619 49.23765 7907 ft 273 kts 272°
2026-05-04 18:09 55.41056 49.17155 7904 ft 272 kts 279°
2026-05-04 18:09 55.41516 49.10593 7904 ft 272 kts 279°
2026-05-04 18:10 55.41737 49.07291 7904 ft 272 kts 279°
2026-05-04 18:10 55.41955 49.03981 7904 ft 272 kts 279°
2026-05-04 18:10 55.42174 49.00673 7915 ft 272 kts 279°
2026-05-04 18:10 55.42397 48.97342 8110 ft 278 kts 278°
2026-05-04 18:11 55.42623 48.93972 9122 ft 276 kts 279°
2026-05-04 18:11 55.42847 48.90604 10044 ft 278 kts 279°
2026-05-04 18:11 55.43081 48.87104 10420 ft 299 kts 279°
2026-05-04 18:11 55.43333 48.83332 10751 ft 319 kts 279°
2026-05-04 18:12 55.43590 48.79401 11410 ft 326 kts 279°
2026-05-04 18:12 55.43843 48.75472 12051 ft 333 kts 278°
2026-05-04 18:12 55.44107 48.71370 12727 ft 337 kts 279°
2026-05-04 18:12 55.44369 48.67247 13550 ft 339 kts 278°
2026-05-04 18:13 55.44631 48.63091 14230 ft 343 kts 279°
2026-05-04 18:13 55.44897 48.58898 14919 ft 346 kts 279°
2026-05-04 18:13 55.45778 48.50542 16274 ft 348 kts 290°
2026-05-04 18:14 55.46498 48.46461 16959 ft 350 kts 290°
2026-05-04 18:14 55.47212 48.42393 17626 ft 353 kts 290°
2026-05-04 18:14 55.47936 48.38237 18270 ft 355 kts 290°
2026-05-04 18:15 55.49389 48.29840 19454 ft 359 kts 290°
2026-05-04 18:15 55.50849 48.21366 20701 ft 362 kts 290°
2026-05-04 18:15 55.51583 48.17091 21271 ft 365 kts 290°
2026-05-04 18:16 55.52322 48.12782 21845 ft 367 kts 290°
2026-05-04 18:16 55.53064 48.08438 22412 ft 370 kts 290°
2026-05-04 18:16 55.53800 48.04124 22969 ft 372 kts 290°
2026-05-04 18:17 55.55299 47.95315 23950 ft 377 kts 291°
2026-05-04 18:17 55.56053 47.90857 24392 ft 379 kts 291°
2026-05-04 18:17 55.57397 47.82906 25092 ft 383 kts 291°
2026-05-04 18:18 55.57760 47.80752 25265 ft 385 kts 291°
2026-05-04 18:18 55.58489 47.76410 25625 ft 388 kts 291°
2026-05-04 18:18 55.59293 47.71611 25699 ft 396 kts 286°
2026-05-04 18:18 55.60078 47.66892 25867 ft 405 kts 286°
2026-05-04 18:19 55.61449 47.58633 26547 ft 412 kts 289°
2026-05-04 18:19 55.62243 47.53817 27306 ft 404 kts 290°
2026-05-04 18:19 55.63026 47.49055 27883 ft 401 kts 291°
2026-05-04 18:20 55.63808 47.44309 28306 ft 402 kts 291°
2026-05-04 18:20 55.64593 47.39540 28689 ft 403 kts 291°
2026-05-04 18:20 55.65371 47.34814 29050 ft 405 kts 291°
2026-05-04 18:20 55.66159 47.30015 29391 ft 406 kts 291°
2026-05-04 18:21 55.66431 47.28347 29508 ft 407 kts 291°
2026-05-04 18:21 55.67218 47.23520 29813 ft 409 kts 291°
2026-05-04 18:21 55.68752 47.14035 29893 ft 389 kts 291°
2026-05-04 18:22 55.69821 47.07381 29895 ft 383 kts 291°
2026-05-04 18:22 55.71289 46.98301 29889 ft 382 kts 291°
2026-05-04 18:23 55.72746 46.89270 29892 ft 381 kts 290°
2026-05-04 18:23 55.74193 46.80202 29895 ft 381 kts 290°
2026-05-04 18:24 55.75616 46.71186 29881 ft 381 kts 290°
2026-05-04 18:24 55.77044 46.62115 29849 ft 382 kts 290°
2026-05-04 18:25 55.78475 46.52975 29860 ft 384 kts 290°
2026-05-04 18:25 55.79535 46.43696 29867 ft 390 kts 278°
2026-05-04 18:26 55.79941 46.33944 29876 ft 394 kts 285°
2026-05-04 18:26 55.80631 46.29310 29730 ft 385 kts 290°
2026-05-04 18:26 55.81365 46.24764 29441 ft 380 kts 290°
2026-05-04 18:27 55.82098 46.20270 29157 ft 377 kts 290°
2026-05-04 18:27 55.82830 46.15789 28876 ft 376 kts 290°
2026-05-04 18:27 55.83559 46.11328 28597 ft 375 kts 290°
2026-05-04 18:27 55.84285 46.06880 28322 ft 373 kts 290°
2026-05-04 18:28 55.85006 46.02437 28048 ft 372 kts 289°
2026-05-04 18:28 55.85721 45.98020 27776 ft 371 kts 289°
2026-05-04 18:28 55.86436 45.93603 27504 ft 368 kts 289°
2026-05-04 18:28 55.87125 45.89310 27105 ft 362 kts 289°
2026-05-04 18:29 55.87809 45.85021 26681 ft 358 kts 289°
2026-05-04 18:29 55.88485 45.80772 26264 ft 354 kts 289°
2026-05-04 18:29 55.89150 45.76594 25847 ft 351 kts 288°
2026-05-04 18:29 55.89809 45.72437 25442 ft 347 kts 288°
2026-05-04 18:30 55.91113 45.64231 24636 ft 340 kts 288°
2026-05-04 18:30 55.91756 45.60188 24235 ft 337 kts 288°
2026-05-04 18:30 55.92391 45.56182 23829 ft 334 kts 288°
2026-05-04 18:31 55.93016 45.52200 23411 ft 332 kts 288°
2026-05-04 18:31 55.93623 45.48303 22966 ft 329 kts 288°
2026-05-04 18:31 55.94231 45.44394 22559 ft 325 kts 288°
2026-05-04 18:31 55.94829 45.40542 22271 ft 320 kts 288°
2026-05-04 18:32 55.95426 45.36705 21890 ft 319 kts 288°
2026-05-04 18:32 55.96020 45.32893 21492 ft 317 kts 288°
2026-05-04 18:32 55.96301 45.31082 21302 ft 316 kts 288°
2026-05-04 18:32 55.96886 45.27302 20899 ft 315 kts 288°
2026-05-04 18:33 55.97467 45.23542 20498 ft 313 kts 288°
2026-05-04 18:33 55.98043 45.19796 20097 ft 311 kts 288°
2026-05-04 18:33 55.98607 45.16117 19707 ft 310 kts 287°
2026-05-04 18:33 55.99175 45.12401 19317 ft 308 kts 287°
2026-05-04 18:34 55.99740 45.08708 18924 ft 307 kts 287°
2026-05-04 18:34 56.00306 45.05016 18531 ft 307 kts 288°
2026-05-04 18:34 56.01056 45.01462 18133 ft 304 kts 298°
2026-05-04 18:34 56.02107 44.98183 17687 ft 304 kts 302°
2026-05-04 18:35 56.03176 44.94937 17278 ft 302 kts 301°
2026-05-04 18:35 56.04236 44.91697 16883 ft 301 kts 301°
2026-05-04 18:35 56.05277 44.88513 16496 ft 300 kts 301°
2026-05-04 18:35 56.06327 44.85292 16094 ft 299 kts 301°
2026-05-04 18:36 56.07374 44.82073 15706 ft 299 kts 301°
2026-05-04 18:36 56.08417 44.78856 15314 ft 298 kts 301°
2026-05-04 18:36 56.09457 44.75644 14921 ft 298 kts 301°
2026-05-04 18:36 56.10497 44.72432 14523 ft 298 kts 301°
2026-05-04 18:37 56.11538 44.69213 14136 ft 299 kts 301°
2026-05-04 18:37 56.12583 44.65974 13738 ft 299 kts 301°
2026-05-04 18:37 56.13624 44.62743 13309 ft 299 kts 300°
2026-05-04 18:37 56.14665 44.59513 12893 ft 298 kts 300°
2026-05-04 18:38 56.15702 44.56297 12487 ft 297 kts 300°
2026-05-04 18:38 56.16736 44.53094 12076 ft 296 kts 300°
2026-05-04 18:38 56.17755 44.49934 11671 ft 295 kts 300°
2026-05-04 18:38 56.18778 44.46757 11262 ft 293 kts 300°
2026-05-04 18:39 56.19794 44.43591 10849 ft 292 kts 299°
2026-05-04 18:39 56.20806 44.40425 10434 ft 291 kts 299°
2026-05-04 18:39 56.21813 44.37276 10123 ft 287 kts 299°
2026-05-04 18:39 56.22786 44.34230 9968 ft 277 kts 298°
2026-05-04 18:40 56.23737 44.31258 9704 ft 272 kts 298°
2026-05-04 18:40 56.24684 44.28287 9210 ft 274 kts 298°
2026-05-04 18:40 56.25636 44.25290 8723 ft 276 kts 298°
2026-05-04 18:40 56.26575 44.22319 8382 ft 271 kts 298°
2026-05-04 18:41 56.27501 44.19387 7779 ft 268 kts 298°
2026-05-04 18:41 56.28411 44.16504 7076 ft 268 kts 298°
2026-05-04 18:41 56.29341 44.13563 6607 ft 269 kts 298°
2026-05-04 18:41 56.30353 44.10752 6227 ft 268 kts 304°
2026-05-04 18:42 56.31445 44.08032 5772 ft 268 kts 304°
2026-05-04 18:42 56.32525 44.05326 5109 ft 265 kts 304°
2026-05-04 18:42 56.33601 44.02620 4420 ft 264 kts 304°
2026-05-04 18:42 56.34627 44.00032 4229 ft 245 kts 304°
2026-05-04 18:43 56.35594 43.97587 4110 ft 233 kts 304°
2026-05-04 18:44 56.36048 43.96439 4045 ft 228 kts 304°
2026-05-04 18:44 56.36358 43.95651 4005 ft 225 kts 304°
2026-05-04 18:44 56.37222 43.91520 3872 ft 203 kts 275°
2026-05-04 18:44 56.37155 43.89075 3771 ft 189 kts 258°
2026-05-04 18:45 56.36743 43.86914 3648 ft 177 kts 244°
2026-05-04 18:45 56.36059 43.85034 2915 ft 193 kts 229°
2026-05-04 18:45 56.35006 43.83472 2413 ft 194 kts 211°
2026-05-04 18:45 56.33802 43.82569 2172 ft 182 kts 195°
2026-05-04 18:46 56.32607 43.82117 1959 ft 167 kts 192°
2026-05-04 18:46 56.31521 43.81719 1727 ft 154 kts 192°
2026-05-04 18:46 56.30493 43.81348 1491 ft 148 kts 192°
2026-05-04 18:46 56.29492 43.80992 1344 ft 146 kts 192°
2026-05-04 18:47 56.28501 43.80635 1167 ft 144 kts 192°
2026-05-04 18:47 56.27525 43.80249 1011 ft 143 kts 193°
2026-05-04 18:47 56.26550 43.79886 799 ft 142 kts 191°
2026-05-04 18:47 56.25580 43.79532 615 ft 142 kts 192°
2026-05-04 18:48 56.24603 43.79173 422 ft 140 kts 191°
2026-05-04 18:48 56.23657 43.78823 282 ft 137 kts 191°
2026-05-04 18:48 56.22835 43.78525 266 ft 99 kts 192°